Wind_Speed
20 22 25 28 27 25 25 24 23 25 26 27 26 25 23 22 22 24 24 26 27 24 24 26 25 25 25 25 26 24 16 17
20 21 21 21 21 22 24 25 24 27 27 27 26 26 25 23 22 19 17 16 18 18 16 18 20 15 16 15 17 20 20 21
12 16 17 19 16 17 19 19 19 19 20 21 21 18 16 15 16 17 19 18 20 21 19 20 21 21 20 16 16 17 22 27
12 5 2 2 5 7 9 8 10 11 12 13 15 17 19 20 21 22 24 25 27 28 28 25 24 23 21 21 22 20 20 26
12 14 13 12 14 17 19 19 19 21 22 22 23 24 24 26 26 28 28 29 31 32 32 32 30 30 30 27 26 25 25 30
17 16 17 19 21 20 22 23 23 25 26 27 28 30 30 30 31 32 33 34 34 35 35 36 36 35 34 37 36 31 30 30
18 21 22 23 25 26 25 26 27 28 30 30 32 34 35 35 35 35 36 36 36 36 36 37 39 39 38 38 39 39 36 33
20 21 24 26 27 29 29 29 30 31 32 33 33 34 35 36 36 37 38 39 39 39 39 39 40 41 41 43 42 41 41 39
24 25 24 25 26 29 31 31 33 34 34 35 37 39 39 39 39 40 41 41 42 43 44 44 43 42 42 43 45 47 45 44
22 23 26 28 29 31 33 35 36 38 40 43 44 45 47 46 46 47 48 48 49 49 50 51 51 50 50 48 45 48 51 50
23 25 26 30 34 37 38 39 42 46 46 47 49 50 51 53 52 53 55 55 55 56 56 55 56 58 58 58 56 52 51 55
30 32 36 40 41 42 45 44 46 47 49 51 52 54 55 57 57 57 58 58 58 59 59 60 63 64 65 65 62 59 58 55
41 43 44 44 45 48 49 51 52 53 55 56 56 55 57 59 60 60 62 62 61 62 63 65 68 70 70 69 68 66 60 61
40 44 46 48 49 52 54 55 55 56 57 58 60 59 59 60 61 63 63 61 61 63 65 67 69 70 71 73 71 66 66 61
33 36 44 49 52 54 55 56 55 55 58 59 59 60 61 61 63 63 64 63 63 64 67 68 70 71 72 72 70 69 62 60
35 38 42 47 49 51 55 57 60 60 60 60 60 61 61 62 63 63 63 66 68 68 70 69 65 63 64 68 69 71 67 63
46 48 48 52 51 51 55 57 55 56 57 59 59 59 58 59 63 66 67 66 67 71 74 74 70 66 66 68 67 66 68 67
47 49 52 54 57 57 55 56 59 60 60 60 60 61 64 66 64 64 66 69 69 70 70 69 70 70 69 70 68 67 63 64
53 53 57 58 60 61 61 60 61 60 61 63 67 68 69 67 67 68 67 66 67 60 71 68 68 72 71 69 71 71 70 67
59 58 60 61 61 61 62 62 62 62 64 67 68 69 71 70 69 67 65 60 65 67 69 62 64 74 72 71 72 72 70 69
Wind_Direction
284 286 284 287 293 293 288 286 285 283 281 280 279 281 284 284 286 289 289 288 287 287 284 286 286 284 282 282 288 292 288 279
282 290 294 292 291 287 286 285 285 283 282 284 285 287 289 289 288 290 294 301 307 311 307 305 310 311 305 290 279 279 266 257
284 283 288 290 294 291 294 295 295 300 294 292 295 297 303 306 304 302 300 301 303 305 303 301 303 307 309 307 296 276 259 249
355 355 340 319 286 294 298 306 302 296 290 291 294 300 305 307 307 307 304 304 303 302 300 298 296 293 291 291 286 275 268 256
341 339 336 325 315 314 315 308 303 301 298 296 294 293 296 298 299 298 297 295 294 295 294 295 295 294 293 286 282 280 273 263
319 318 314 307 304 302 302 299 296 294 293 293 295 296 296 295 295 294 294 293 294 294 293 292 292 291 288 289 288 283 278 280
313 310 308 308 306 305 301 299 301 299 299 301 301 301 301 301 300 297 295 293 291 289 289 289 289 288 285 283 280 278 275 276
308 307 307 308 308 306 306 306 304 302 301 300 297 294 295 295 295 294 294 296 295 293 290 286 284 283 284 284 281 277 275 270
307 305 307 309 310 308 309 307 305 304 302 298 294 293 293 292 292 291 291 292 292 291 289 288 285 284 282 281 282 282 276 272
301 303 306 306 307 307 307 308 308 306 304 300 297 295 294 294 293 291 291 291 289 288 288 288 287 285 284 281 278 277 275 271
303 302 303 306 309 307 303 301 302 302 301 302 300 297 295 294 293 291 289 288 289 289 289 289 287 286 285 285 283 280 271 269
307 303 304 305 303 301 301 299 300 299 297 296 296 294 292 291 291 291 290 290 290 288 287 287 287 286 286 286 285 282 277 268
306 304 302 301 299 300 299 299 300 300 300 298 296 293 292 291 291 290 290 290 289 287 287 287 287 286 286 284 284 282 277 271
311 308 306 302 300 301 301 300 300 299 298 297 296 293 291 290 288 287 286 286 285 287 287 287 287 287 287 286 283 280 278 270
312 310 303 299 299 299 298 301 300 297 295 294 292 291 291 291 290 289 289 288 288 288 288 289 290 288 286 282 279 276 268 265
307 301 293 295 300 302 304 302 300 299 297 295 294 293 293 292 292 292 292 290 290 289 289 288 286 280 276 275 273 273 267 259
314 307 301 301 302 302 301 298 295 293 293 292 294 294 296 297 296 295 294 293 293 292 291 291 287 280 273 269 269 271 273 271
312 305 304 305 306 308 307 306 305 304 303 302 300 300 302 302 303 300 298 298 296 293 289 286 284 281 277 276 276 273 271 269
310 311 309 312 312 311 310 311 308 305 304 304 306 305 303 304 303 301 299 295 292 289 286 285 285 281 281 280 278 275 273 271
311 312 312 311 311 309 309 309 309 307 305 305 308 308 306 304 300 296 295 292 287 284 283 287 279 279 281 279 277 274 274 275
Height
5811 5810 5808 5806 5807 5806 5804 5803 5802 5801 5799 5798 5798 5797 5797 5796 5795 5794 5793 5791 5789 5788 5786 5784 5785 5784 5785 5785 5782 5782 5782 5785
5806 5805 5805 5804 5804 5802 5800 5799 5798 5796 5795 5794 5793 5792 5791 5790 5789 5788 5787 5786 5784 5783 5782 5779 5778 5777 5777 5778 5776 5776 5778 5782
5804 5804 5804 5803 5802 5800 5798 5797 5794 5792 5792 5790 5788 5787 5786 5785 5784 5783 5782 5781 5779 5778 5777 5776 5774 5773 5773 5771 5772 5773 5773 5775
5804 5805 5804 5802 5800 5798 5796 5794 5791 5789 5787 5785 5783 5781 5780 5779 5777 5777 5776 5774 5773 5772 5770 5771 5770 5770 5769 5770 5771 5770 5769 5767
5804 5802 5802 5801 5800 5797 5796 5794 5791 5788 5785 5783 5781 5779 5777 5774 5773 5770 5769 5768 5766 5765 5763 5762 5762 5762 5762 5762 5762 5762 5763 5763
5803 5802 5800 5798 5796 5795 5793 5791 5788 5786 5784 5781 5777 5774 5772 5770 5768 5766 5763 5761 5760 5757 5755 5754 5753 5753 5753 5753 5752 5752 5753 5753
5801 5799 5797 5796 5792 5790 5788 5785 5783 5780 5776 5774 5771 5767 5764 5762 5761 5758 5756 5754 5752 5751 5749 5746 5744 5743 5744 5744 5744 5744 5745 5744
5800 5798 5794 5791 5789 5785 5783 5781 5778 5775 5771 5767 5764 5761 5758 5755 5752 5749 5747 5745 5744 5742 5740 5739 5736 5734 5733 5732 5733 5733 5733 5734
5797 5795 5792 5788 5785 5781 5777 5774 5771 5768 5765 5762 5756 5752 5750 5749 5746 5743 5740 5737 5734 5731 5728 5727 5726 5725 5723 5721 5720 5719 5720 5721
5794 5791 5787 5784 5781 5777 5773 5768 5764 5761 5757 5752 5748 5744 5739 5737 5735 5731 5729 5726 5723 5719 5716 5713 5711 5708 5708 5708 5708 5707 5706 5706
5789 5786 5782 5777 5773 5770 5766 5762 5757 5752 5748 5743 5738 5734 5729 5724 5721 5717 5714 5711 5709 5705 5702 5700 5697 5695 5694 5692 5691 5692 5692 5693
5785 5780 5775 5770 5765 5761 5756 5752 5747 5742 5736 5733 5728 5723 5717 5712 5708 5705 5700 5697 5694 5690 5687 5684 5680 5678 5677 5675 5674 5673 5674 5674
5777 5771 5767 5761 5756 5751 5746 5741 5737 5731 5723 5717 5713 5710 5705 5698 5693 5690 5686 5683 5679 5675 5671 5666 5662 5659 5658 5656 5655 5655 5656 5655
5770 5763 5756 5750 5745 5741 5735 5731 5726 5720 5712 5705 5698 5693 5688 5684 5680 5674 5670 5667 5663 5659 5654 5649 5645 5640 5637 5635 5635 5636 5632 5633
5765 5757 5748 5741 5735 5730 5724 5719 5713 5708 5700 5694 5687 5680 5675 5669 5663 5657 5650 5646 5643 5639 5636 5632 5628 5623 5618 5614 5611 5611 5614 5613
5756 5749 5741 5732 5725 5719 5711 5704 5697 5690 5683 5676 5671 5664 5659 5652 5645 5639 5635 5630 5625 5621 5617 5613 5609 5605 5599 5592 5589 5586 5589 5595
5741 5734 5726 5718 5713 5708 5701 5693 5687 5680 5672 5664 5657 5650 5644 5637 5631 5625 5619 5614 5608 5603 5597 5591 5587 5582 5578 5573 5570 5568 5566 5565
5730 5722 5714 5707 5699 5691 5684 5674 5665 5657 5651 5645 5639 5634 5626 5619 5613 5606 5599 5594 5589 5582 5575 5569 5563 5559 5556 5553 5551 5550 5550 5547
5713 5705 5696 5689 5679 5671 5664 5658 5650 5642 5635 5628 5620 5613 5607 5603 5596 5588 5579 5572 5565 5561 5554 5551 5548 5539 5537 5536 5532 5530 5529 5529
5697 5691 5682 5675 5668 5661 5654 5646 5637 5628 5621 5613 5606 5595 5587 5584 5577 5570 5561 5553 5549 5543 5537 5532 5528 5522 5520 5518 5515 5513 5511 5510